Time,TemperatureF,DewpointF,PressureIn,WindDirection,WindDirectionDegrees,WindSpeedMPH,WindSpeedGustMPH,Humidity,HourlyPrecipIn,Conditions,Clouds,dailyrainin,SoftwareType,DateUTC
2013-06-07 00:01:00,67.8,38.9,30.12,North,0,0.0,0.0,35,0.00,,,0.00,WUHU21623XXSP,2013-06-07 07:01:00,
2013-06-07 00:07:00,67.8,38.9,30.12,North,0,0.0,0.0,35,0.00,,,0.00,WUHU21623XXSP,2013-06-07 07:07:00,
2013-06-07 00:12:00,67.3,38.5,30.12,NNE,22,0.0,0.0,35,0.00,,,0.00,WUHU21623XXSP,2013-06-07 07:12:00,
2013-06-07 00:18:00,66.7,38.8,30.13,South,180,0.0,0.0,36,0.00,,,0.00,WUHU21623XXSP,2013-06-07 07:18:00,
2013-06-07 00:23:00,66.2,38.3,30.12,SSE,157,0.0,0.0,36,0.00,,,0.00,WUHU21623XXSP,2013-06-07 07:23:00,
2013-06-07 00:28:00,65.8,38.7,30.12,West,270,0.0,0.0,37,0.00,,,0.00,WUHU21623XXSP,2013-06-07 07:28:00,
2013-06-07 00:35:00,65.5,38.4,30.13,SSE,157,0.0,0.0,37,0.00,,,0.00,WUHU21623XXSP,2013-06-07 07:35:00,
2013-06-07 00:44:00,64.8,37.9,30.12,SSE,157,0.0,0.0,37,0.00,,,0.00,WUHU21623XXSP,2013-06-07 07:44:00,
2013-06-07 00:50:00,64.2,37.2,30.13,South,180,0.0,0.0,37,0.00,,,0.00,WUHU21623XXSP,2013-06-07 07:50:00,
2013-06-07 00:57:00,64.0,37.1,30.13,West,270,0.0,0.0,37,0.00,,,0.00,WUHU21623XXSP,2013-06-07 07:57:00,
2013-06-07 01:02:00,63.7,37.5,30.13,West,270,0.0,0.0,38,0.00,,,0.00,WUHU21623XXSP,2013-06-07 08:02:00,
2013-06-07 01:07:00,63.1,37.0,30.13,West,270,0.0,0.0,38,0.00,,,0.00,WUHU21623XXSP,2013-06-07 08:07:00,
2013-06-07 01:13:00,62.8,36.7,30.13,West,270,0.0,0.0,38,0.00,,,0.00,WUHU21623XXSP,2013-06-07 08:13:00,
2013-06-07 01:22:00,62.4,37.1,30.13,NW,315,0.0,0.0,39,0.00,,,0.00,WUHU21623XXSP,2013-06-07 08:22:00,
2013-06-07 01:27:00,62.2,36.9,30.13,SE,135,0.0,0.0,39,0.00,,,0.00,WUHU21623XXSP,2013-06-07 08:27:00,
2013-06-07 01:33:00,61.7,36.4,30.13,SE,135,0.0,0.0,39,0.00,,,0.00,WUHU21623XXSP,2013-06-07 08:33:00,
2013-06-07 01:39:00,61.3,36.8,30.13,SE,135,0.0,0.0,40,0.00,,,0.00,WUHU21623XXSP,2013-06-07 08:39:00,
2013-06-07 01:44:00,61.3,36.8,30.13,SSE,157,0.0,0.0,40,0.00,,,0.00,WUHU21623XXSP,2013-06-07 08:44:00,
2013-06-07 01:50:00,60.6,36.2,30.13,SSE,157,0.0,0.0,40,0.00,,,0.00,WUHU21623XXSP,2013-06-07 08:50:00,
2013-06-07 01:55:00,60.6,36.2,30.13,SE,135,0.0,0.0,40,0.00,,,0.00,WUHU21623XXSP,2013-06-07 08:55:00,
2013-06-07 02:00:00,60.4,36.0,30.13,SE,135,0.0,0.0,40,0.00,,,0.00,WUHU21623XXSP,2013-06-07 09:00:00,
2013-06-07 02:05:00,59.9,36.1,30.13,SSE,157,0.0,0.0,41,0.00,,,0.00,WUHU21623XXSP,2013-06-07 09:05:00,
2013-06-07 02:11:00,59.5,35.8,30.13,SE,135,0.0,0.0,41,0.00,,,0.00,WUHU21623XXSP,2013-06-07 09:11:00,
2013-06-07 02:16:00,59.4,35.6,30.13,SE,135,0.0,0.0,41,0.00,,,0.00,WUHU21623XXSP,2013-06-07 09:16:00,
2013-06-07 02:22:00,59.2,35.4,30.13,SE,135,0.0,0.0,41,0.00,,,0.00,WUHU21623XXSP,2013-06-07 09:22:00,
2013-06-07 02:27:00,58.8,35.7,30.13,SE,135,0.0,0.0,42,0.00,,,0.00,WUHU21623XXSP,2013-06-07 09:27:00,
2013-06-07 02:32:00,58.8,35.7,30.13,SSE,157,0.0,0.0,42,0.00,,,0.00,WUHU21623XXSP,2013-06-07 09:32:00,
2013-06-07 02:37:00,58.3,35.2,30.12,SSE,157,0.0,0.0,42,0.00,,,0.00,WUHU21623XXSP,2013-06-07 09:37:00,
2013-06-07 02:42:00,58.1,35.0,30.12,SE,135,0.0,0.0,42,0.00,,,0.00,WUHU21623XXSP,2013-06-07 09:42:00,
2013-06-07 02:50:00,57.7,35.3,30.12,SE,135,0.0,0.0,43,0.00,,,0.00,WUHU21623XXSP,2013-06-07 09:50:00,
2013-06-07 02:55:00,57.6,35.1,30.12,SE,135,0.0,0.0,43,0.00,,,0.00,WUHU21623XXSP,2013-06-07 09:55:00,
2013-06-07 03:00:00,57.6,35.1,30.12,SE,135,0.0,0.0,43,0.00,,,0.00,WUHU21623XXSP,2013-06-07 10:00:00,
2013-06-07 03:05:00,57.4,35.0,30.12,SSE,157,0.0,0.0,43,0.00,,,0.00,WUHU21623XXSP,2013-06-07 10:05:00,
2013-06-07 03:10:00,57.0,35.2,30.12,SSE,157,0.0,0.0,44,0.00,,,0.00,WUHU21623XXSP,2013-06-07 10:10:00,
2013-06-07 03:15:00,57.0,35.2,30.13,SSE,157,0.0,0.0,44,0.00,,,0.00,WUHU21623XXSP,2013-06-07 10:15:00,
2013-06-07 03:20:00,56.8,35.0,30.12,WNW,292,0.0,0.0,44,0.00,,,0.00,WUHU21623XXSP,2013-06-07 10:20:00,
2013-06-07 03:25:00,56.8,35.0,30.12,WNW,292,0.0,0.0,44,0.00,,,0.00,WUHU21623XXSP,2013-06-07 10:25:00,
2013-06-07 03:30:00,56.5,34.7,30.12,West,270,0.0,0.0,44,0.00,,,0.00,WUHU21623XXSP,2013-06-07 10:30:00,
2013-06-07 03:35:00,56.3,34.5,30.13,South,180,0.0,0.0,44,0.00,,,0.00,WUHU21623XXSP,2013-06-07 10:35:00,
2013-06-07 03:40:00,56.1,34.4,30.13,West,270,0.0,0.0,44,0.00,,,0.00,WUHU21623XXSP,2013-06-07 10:40:00,
2013-06-07 03:48:00,55.8,34.6,30.13,West,270,0.0,0.0,45,0.00,,,0.00,WUHU21623XXSP,2013-06-07 10:48:00,
2013-06-07 03:53:00,55.6,34.4,30.13,West,270,0.0,0.0,45,0.00,,,0.00,WUHU21623XXSP,2013-06-07 10:53:00,
2013-06-07 03:58:00,55.4,34.3,30.13,West,270,0.0,0.0,45,0.00,,,0.00,WUHU21623XXSP,2013-06-07 10:58:00,
2013-06-07 04:03:00,55.2,34.1,30.13,West,270,0.0,0.0,45,0.00,,,0.00,WUHU21623XXSP,2013-06-07 11:03:00,
2013-06-07 04:08:00,55.0,33.9,30.13,West,270,0.0,0.0,45,0.00,,,0.00,WUHU21623XXSP,2013-06-07 11:08:00,
2013-06-07 04:15:00,54.7,34.2,30.14,WSW,247,0.0,0.0,46,0.00,,,0.00,WUHU21623XXSP,2013-06-07 11:15:00,
2013-06-07 04:24:00,54.3,33.8,30.14,SW,225,0.0,0.0,46,0.00,,,0.00,WUHU21623XXSP,2013-06-07 11:24:00,
2013-06-07 04:30:00,54.1,33.7,30.13,SW,225,0.0,0.0,46,0.00,,,0.00,WUHU21623XXSP,2013-06-07 11:30:00,
2013-06-07 04:35:00,54.0,33.7,30.13,SW,225,0.0,0.0,46,0.00,,,0.00,WUHU21623XXSP,2013-06-07 11:35:00,
2013-06-07 04:41:00,53.8,33.9,30.13,SW,225,0.0,0.0,47,0.00,,,0.00,WUHU21623XXSP,2013-06-07 11:41:00,
2013-06-07 04:46:00,53.6,33.9,30.14,SW,225,0.0,0.0,47,0.00,,,0.00,WUHU21623XXSP,2013-06-07 11:46:00,
2013-06-07 04:52:00,53.4,33.6,30.14,SW,225,0.0,0.0,47,0.00,,,0.00,WUHU21623XXSP,2013-06-07 11:52:00,
2013-06-07 04:57:00,53.4,33.6,30.14,SW,225,0.0,0.0,47,0.00,,,0.00,WUHU21623XXSP,2013-06-07 11:57:00,
2013-06-07 05:02:00,53.4,33.6,30.14,SW,225,0.0,0.0,47,0.00,,,0.00,WUHU21623XXSP,2013-06-07 12:02:00,
2013-06-07 05:07:00,52.9,33.7,30.14,East,90,0.0,0.0,48,0.00,,,0.00,WUHU21623XXSP,2013-06-07 12:07:00,
2013-06-07 05:13:00,52.9,33.7,30.14,East,90,0.0,0.0,48,0.00,,,0.00,WUHU21623XXSP,2013-06-07 12:13:00,
2013-06-07 05:22:00,52.7,34.1,30.14,East,90,0.0,0.0,49,0.00,,,0.00,WUHU21623XXSP,2013-06-07 12:22:00,
2013-06-07 05:27:00,52.5,33.9,30.14,ESE,112,0.0,0.0,49,0.00,,,0.00,WUHU21623XXSP,2013-06-07 12:27:00,
2013-06-07 05:32:00,52.5,33.3,30.15,South,180,0.0,0.0,49,0.00,,,0.00,WUHU21623XXSP,2013-06-07 12:32:00,
2013-06-07 05:37:00,52.5,33.3,30.14,SSE,157,0.0,0.0,48,0.00,,,0.00,WUHU21623XXSP,2013-06-07 12:37:00,
2013-06-07 05:42:00,52.3,33.2,30.15,SSW,202,0.0,0.0,48,0.00,,,0.00,WUHU21623XXSP,2013-06-07 12:42:00,
2013-06-07 05:47:00,52.3,33.7,30.15,NNW,337,0.0,0.0,49,0.00,,,0.00,WUHU21623XXSP,2013-06-07 12:47:00,
2013-06-07 05:54:00,52.3,33.7,30.15,NNW,337,0.0,0.0,49,0.00,,,0.00,WUHU21623XXSP,2013-06-07 12:54:00,
2013-06-07 05:59:00,52.3,33.7,30.15,NNW,337,0.0,0.0,49,0.00,,,0.00,WUHU21623XXSP,2013-06-07 12:59:00,
2013-06-07 06:04:00,52.3,34.3,30.16,WNW,292,0.0,0.0,50,0.00,,,0.00,WUHU21623XXSP,2013-06-07 13:04:00,
2013-06-07 06:09:00,52.3,35.2,30.16,NNW,337,0.0,0.0,53,0.00,,,0.00,WUHU21623XXSP,2013-06-07 13:09:00,
2013-06-07 06:15:00,52.3,35.6,30.16,NNW,337,0.0,0.0,53,0.00,,,0.00,WUHU21623XXSP,2013-06-07 13:15:00,
2013-06-07 06:22:00,52.5,35.8,30.16,NNW,337,0.0,0.0,53,0.00,,,0.00,WUHU21623XXSP,2013-06-07 13:22:00,
2013-06-07 06:27:00,52.5,35.8,30.16,NNW,337,0.0,0.0,53,0.00,,,0.00,WUHU21623XXSP,2013-06-07 13:27:00,
2013-06-07 06:33:00,52.7,36.0,30.16,SE,135,0.0,0.0,53,0.00,,,0.00,WUHU21623XXSP,2013-06-07 13:33:00,
2013-06-07 06:39:00,52.9,36.1,30.16,SSE,157,0.0,0.0,53,0.00,,,0.00,WUHU21623XXSP,2013-06-07 13:39:00,
2013-06-07 06:44:00,52.9,36.1,30.15,SSE,157,0.0,0.0,53,0.00,,,0.00,WUHU21623XXSP,2013-06-07 13:44:00,
2013-06-07 06:49:00,53.2,36.5,30.16,SSE,157,0.0,0.0,53,0.00,,,0.00,WUHU21623XXSP,2013-06-07 13:49:00,
2013-06-07 06:54:00,53.4,36.6,30.16,SSE,157,0.0,0.0,53,0.00,,,0.00,WUHU21623XXSP,2013-06-07 13:54:00,
2013-06-07 06:59:00,53.4,36.6,30.16,South,180,0.0,0.0,53,0.00,,,0.00,WUHU21623XXSP,2013-06-07 13:59:00,
2013-06-07 07:04:00,53.8,37.0,30.16,South,180,0.0,0.0,53,0.00,,,0.00,WUHU21623XXSP,2013-06-07 14:04:00,
2013-06-07 07:09:00,54.3,37.5,30.16,SSE,157,0.0,0.0,53,0.00,,,0.00,WUHU21623XXSP,2013-06-07 14:09:00,
2013-06-07 07:14:00,54.5,37.5,30.16,SSE,157,0.0,0.0,53,0.00,,,0.00,WUHU21623XXSP,2013-06-07 14:14:00,
2013-06-07 07:20:00,55.0,38.1,30.15,SSE,157,0.0,0.0,53,0.00,,,0.00,WUHU21623XXSP,2013-06-07 14:20:00,
2013-06-07 07:25:00,55.4,38.4,30.16,SSE,157,0.0,0.0,53,0.00,,,0.00,WUHU21623XXSP,2013-06-07 14:25:00,
2013-06-07 07:30:00,55.8,38.6,30.16,SSE,157,0.0,0.0,53,0.00,,,0.00,WUHU21623XXSP,2013-06-07 14:30:00,
2013-06-07 07:35:00,56.3,39.2,30.16,SSE,157,0.0,0.0,53,0.00,,,0.00,WUHU21623XXSP,2013-06-07 14:35:00,
2013-06-07 07:40:00,57.0,39.9,30.16,SE,135,0.0,0.0,53,0.00,,,0.00,WUHU21623XXSP,2013-06-07 14:40:00,
2013-06-07 07:45:00,57.0,40.1,30.16,SSE,157,0.0,0.0,53,0.00,,,0.00,WUHU21623XXSP,2013-06-07 14:45:00,
2013-06-07 07:50:00,57.7,40.3,30.16,South,180,0.0,0.0,52,0.00,,,0.00,WUHU21623XXSP,2013-06-07 14:50:00,
2013-06-07 07:55:00,57.9,40.4,30.16,SSW,202,0.0,0.0,52,0.00,,,0.00,WUHU21623XXSP,2013-06-07 14:55:00,
2013-06-07 08:00:00,58.8,40.8,30.16,SSE,157,0.0,0.0,51,0.00,,,0.00,WUHU21623XXSP,2013-06-07 15:00:00,
2013-06-07 08:05:00,59.9,40.9,30.16,SSE,157,0.0,0.0,50,0.00,,,0.00,WUHU21623XXSP,2013-06-07 15:05:00,
2013-06-07 08:10:00,60.3,41.6,30.16,South,180,0.0,0.0,49,0.00,,,0.00,WUHU21623XXSP,2013-06-07 15:10:00,
2013-06-07 08:15:00,61.0,41.3,30.16,SE,135,2.0,2.0,49,0.00,,,0.00,WUHU21623XXSP,2013-06-07 15:15:00,
2013-06-07 08:20:00,61.5,41.6,30.16,South,180,1.6,2.0,47,0.00,,,0.00,WUHU21623XXSP,2013-06-07 15:20:00,
2013-06-07 08:26:00,61.9,41.3,30.16,SE,135,0.0,1.6,46,0.00,,,0.00,WUHU21623XXSP,2013-06-07 15:26:00,
2013-06-07 08:31:00,62.2,41.1,30.16,SE,135,0.0,0.0,46,0.00,,,0.00,WUHU21623XXSP,2013-06-07 15:31:00,
2013-06-07 08:39:00,63.0,41.1,30.16,SSE,157,0.0,0.0,45,0.00,,,0.00,WUHU21623XXSP,2013-06-07 15:39:00,
2013-06-07 08:44:00,63.1,41.3,30.16,South,180,0.0,0.0,45,0.00,,,0.00,WUHU21623XXSP,2013-06-07 15:44:00,
2013-06-07 08:49:00,63.7,42.2,30.16,SW,225,0.0,0.0,45,0.00,,,0.00,WUHU21623XXSP,2013-06-07 15:49:00,
2013-06-07 08:54:00,64.0,42.1,30.16,South,180,0.0,0.0,45,0.00,,,0.00,WUHU21623XXSP,2013-06-07 15:54:00,
2013-06-07 09:00:00,64.6,42.6,30.16,SSE,157,0.0,0.0,45,0.00,,,0.00,WUHU21623XXSP,2013-06-07 16:00:00,
2013-06-07 09:07:00,65.1,42.5,30.16,SE,135,0.0,0.0,44,0.00,,,0.00,WUHU21623XXSP,2013-06-07 16:07:00,
2013-06-07 09:12:00,65.5,42.7,30.16,ESE,112,0.0,0.0,44,0.00,,,0.00,WUHU21623XXSP,2013-06-07 16:12:00,
2013-06-07 09:20:00,66.4,43.1,30.15,West,270,0.0,0.0,43,0.00,,,0.00,WUHU21623XXSP,2013-06-07 16:20:00,
2013-06-07 09:26:00,67.3,43.0,30.15,WSW,247,0.0,0.0,42,0.00,,,0.00,WUHU21623XXSP,2013-06-07 16:26:00,
2013-06-07 09:31:00,67.3,43.3,30.15,SW,225,0.0,0.0,42,0.00,,,0.00,WUHU21623XXSP,2013-06-07 16:31:00,
2013-06-07 09:37:00,68.2,43.6,30.15,South,180,2.2,2.2,41,0.00,,,0.00,WUHU21623XXSP,2013-06-07 16:37:00,
2013-06-07 09:42:00,68.5,43.9,30.15,SSW,202,0.0,2.2,41,0.00,,,0.00,WUHU21623XXSP,2013-06-07 16:42:00,
2013-06-07 09:47:00,69.1,44.4,30.15,SSW,202,0.0,0.0,41,0.00,,,0.00,WUHU21623XXSP,2013-06-07 16:47:00,
2013-06-07 09:52:00,69.6,44.3,30.15,West,270,0.0,0.0,40,0.00,,,0.00,WUHU21623XXSP,2013-06-07 16:52:00,
2013-06-07 09:58:00,70.5,45.1,30.15,South,180,0.0,0.0,40,0.00,,,0.00,WUHU21623XXSP,2013-06-07 16:58:00,
2013-06-07 10:03:00,70.9,45.4,30.15,WNW,292,0.0,0.0,40,0.00,,,0.00,WUHU21623XXSP,2013-06-07 17:03:00,
2013-06-07 10:08:00,71.8,45.9,30.15,West,270,0.0,0.0,40,0.00,,,0.00,WUHU21623XXSP,2013-06-07 17:08:00,
2013-06-07 10:13:00,72.5,45.9,30.14,West,270,0.0,2.5,38,0.00,,,0.00,WUHU21623XXSP,2013-06-07 17:13:00,
2013-06-07 10:18:00,73.0,45.8,30.14,WNW,292,0.0,2.5,38,0.00,,,0.00,WUHU21623XXSP,2013-06-07 17:18:00,
2013-06-07 10:24:00,73.6,45.6,30.14,South,180,1.8,1.8,37,0.00,,,0.00,WUHU21623XXSP,2013-06-07 17:24:00,
2013-06-07 10:32:00,74.8,44.4,30.14,WNW,292,0.0,1.8,34,0.00,,,0.00,WUHU21623XXSP,2013-06-07 17:32:00,
2013-06-07 10:41:00,75.9,46.1,30.14,North,0,0.0,0.0,35,0.00,,,0.00,WUHU21623XXSP,2013-06-07 17:41:00,
2013-06-07 10:49:00,76.6,46.8,30.14,South,180,0.0,0.0,35,0.00,,,0.00,WUHU21623XXSP,2013-06-07 17:49:00,
2013-06-07 10:56:00,77.5,45.9,30.13,WNW,292,0.0,0.0,32,0.00,,,0.00,WUHU21623XXSP,2013-06-07 17:56:00,
2013-06-07 11:01:00,77.7,45.4,30.14,SSW,202,2.2,2.2,32,0.00,,,0.00,WUHU21623XXSP,2013-06-07 18:01:00,
2013-06-07 11:06:00,78.1,45.0,30.14,SSW,202,0.0,2.2,31,0.00,,,0.00,WUHU21623XXSP,2013-06-07 18:06:00,
2013-06-07 11:13:00,79.0,44.9,30.14,SSW,202,0.0,0.0,30,0.00,,,0.00,WUHU21623XXSP,2013-06-07 18:13:00,
2013-06-07 11:18:00,79.3,45.3,30.14,WNW,292,0.0,0.0,30,0.00,,,0.00,WUHU21623XXSP,2013-06-07 18:18:00,
2013-06-07 11:23:00,79.9,45.8,30.14,West,270,0.0,0.0,30,0.00,,,0.00,WUHU21623XXSP,2013-06-07 18:23:00,
2013-06-07 11:30:00,80.8,45.5,30.13,NNW,337,0.0,0.0,29,0.00,,,0.00,WUHU21623XXSP,2013-06-07 18:30:00,
2013-06-07 11:35:00,81.3,45.9,30.13,South,180,0.0,0.0,29,0.00,,,0.00,WUHU21623XXSP,2013-06-07 18:35:00,
2013-06-07 11:40:00,82.0,45.5,30.13,South,180,1.3,1.3,28,0.00,,,0.00,WUHU21623XXSP,2013-06-07 18:40:00,
2013-06-07 11:47:00,82.8,45.0,30.13,SE,135,0.0,1.3,27,0.00,,,0.00,WUHU21623XXSP,2013-06-07 18:47:00,
2013-06-07 11:52:00,83.1,45.3,30.13,West,270,0.0,0.0,27,0.00,,,0.00,WUHU21623XXSP,2013-06-07 18:52:00,
2013-06-07 11:57:00,83.5,44.6,30.13,East,90,0.0,0.0,26,0.00,,,0.00,WUHU21623XXSP,2013-06-07 18:57:00,
2013-06-07 12:02:00,84.0,45.0,30.12,SE,135,0.0,0.0,26,0.00,,,0.00,WUHU21623XXSP,2013-06-07 19:02:00,
2013-06-07 12:07:00,84.4,44.3,30.12,WNW,292,0.7,0.7,25,0.00,,,0.00,WUHU21623XXSP,2013-06-07 19:07:00,
2013-06-07 12:12:00,84.9,41.5,30.12,NW,315,0.0,0.7,22,0.00,,,0.00,WUHU21623XXSP,2013-06-07 19:12:00,
2013-06-07 12:17:00,86.2,41.2,30.12,WNW,292,1.3,1.3,21,0.00,,,0.00,WUHU21623XXSP,2013-06-07 19:17:00,
2013-06-07 12:26:00,86.9,42.2,30.12,SSW,202,0.0,1.3,21,0.00,,,0.00,WUHU21623XXSP,2013-06-07 19:26:00,
2013-06-07 12:38:00,88.3,42.3,30.11,East,90,0.0,0.0,20,0.00,,,0.00,WUHU21623XXSP,2013-06-07 19:38:00,
2013-06-07 12:45:00,88.9,39.3,30.11,SW,225,0.0,0.0,18,0.00,,,0.00,WUHU21623XXSP,2013-06-07 19:45:00,
2013-06-07 12:50:00,89.2,39.6,30.11,WNW,292,1.6,1.6,18,0.00,,,0.00,WUHU21623XXSP,2013-06-07 19:50:00,
2013-06-07 12:55:00,89.8,40.0,30.11,WNW,292,0.0,1.6,18,0.00,,,0.00,WUHU21623XXSP,2013-06-07 19:55:00,
2013-06-07 13:00:00,90.3,40.3,30.11,NNW,337,1.1,1.1,19,0.00,,,0.00,WUHU21623XXSP,2013-06-07 20:00:00,
2013-06-07 13:05:00,90.7,40.7,30.10,West,270,0.0,1.1,18,0.00,,,0.00,WUHU21623XXSP,2013-06-07 20:05:00,
2013-06-07 13:13:00,90.9,40.9,30.11,West,270,0.0,0.0,18,0.00,,,0.00,WUHU21623XXSP,2013-06-07 20:13:00,
2013-06-07 13:19:00,91.2,42.9,30.10,ESE,112,0.0,0.0,19,0.00,,,0.00,WUHU21623XXSP,2013-06-07 20:19:00,
2013-06-07 13:25:00,91.6,43.2,30.10,SSE,157,0.0,0.0,19,0.00,,,0.00,WUHU21623XXSP,2013-06-07 20:25:00,
2013-06-07 13:32:00,91.6,43.2,30.10,North,0,0.0,0.0,19,0.00,,,0.00,WUHU21623XXSP,2013-06-07 20:32:00,
2013-06-07 13:38:00,91.9,43.4,30.10,South,180,0.0,0.0,19,0.00,,,0.00,WUHU21623XXSP,2013-06-07 20:38:00,
2013-06-07 13:43:00,92.3,43.7,30.10,South,180,0.0,0.0,18,0.00,,,0.00,WUHU21623XXSP,2013-06-07 20:43:00,
2013-06-07 13:48:00,93.6,42.7,30.10,SSE,157,0.0,0.0,18,0.00,,,0.00,WUHU21623XXSP,2013-06-07 20:48:00,
2013-06-07 13:53:00,93.9,43.3,30.10,SSE,157,11.4,11.4,18,0.00,,,0.00,WUHU21623XXSP,2013-06-07 20:53:00,
2013-06-07 14:00:00,94.6,43.8,30.10,South,180,4.3,11.4,18,0.00,,,0.00,WUHU21623XXSP,2013-06-07 21:00:00,
2013-06-07 14:05:00,94.5,40.2,30.10,North,0,0.0,4.3,16,0.00,,,0.00,WUHU21623XXSP,2013-06-07 21:05:00,
2013-06-07 14:10:00,94.1,41.6,30.10,SSW,202,1.6,1.6,17,0.00,,,0.00,WUHU21623XXSP,2013-06-07 21:10:00,
2013-06-07 14:15:00,94.1,43.4,30.09,South,180,0.0,1.6,16,0.00,,,0.00,WUHU21623XXSP,2013-06-07 21:15:00,
2013-06-07 14:20:00,94.3,40.0,30.10,SW,225,0.0,0.0,16,0.00,,,0.00,WUHU21623XXSP,2013-06-07 21:20:00,
2013-06-07 14:25:00,94.6,38.6,30.10,WNW,292,0.0,0.0,15,0.00,,,0.00,WUHU21623XXSP,2013-06-07 21:25:00,
2013-06-07 14:30:00,95.0,37.1,30.10,NW,315,2.2,2.2,14,0.00,,,0.00,WUHU21623XXSP,2013-06-07 21:30:00,
2013-06-07 14:35:00,95.5,35.7,30.10,North,0,0.7,2.2,13,0.00,,,0.00,WUHU21623XXSP,2013-06-07 21:35:00,
2013-06-07 14:40:00,95.7,35.9,30.10,SW,225,0.0,0.7,13,0.00,,,0.00,WUHU21623XXSP,2013-06-07 21:40:00,
2013-06-07 14:45:00,95.9,36.0,30.10,West,270,7.6,7.6,13,0.00,,,0.00,WUHU21623XXSP,2013-06-07 21:45:00,
2013-06-07 14:51:00,96.1,36.1,30.09,WNW,292,1.3,7.6,13,0.00,,,0.00,WUHU21623XXSP,2013-06-07 21:51:00,
2013-06-07 14:56:00,96.1,36.0,30.09,WNW,292,7.6,7.6,13,0.00,,,0.00,WUHU21623XXSP,2013-06-07 21:56:00,
2013-06-07 15:01:00,96.1,36.1,30.09,WNW,292,1.1,7.6,13,0.00,,,0.00,WUHU21623XXSP,2013-06-07 22:01:00,
2013-06-07 15:12:00,96.1,36.1,30.10,NNE,22,0.0,0.0,13,0.00,,,0.00,WUHU21623XXSP,2013-06-07 22:12:00,
2013-06-07 15:18:00,96.1,37.9,30.09,WSW,247,4.5,4.5,14,0.00,,,0.00,WUHU21623XXSP,2013-06-07 22:18:00,
2013-06-07 15:23:00,96.1,37.9,30.09,SSE,157,0.0,4.5,14,0.00,,,0.00,WUHU21623XXSP,2013-06-07 22:23:00,
2013-06-07 15:28:00,95.7,37.6,30.09,WNW,292,0.0,0.0,14,0.00,,,0.00,WUHU21623XXSP,2013-06-07 22:28:00,
2013-06-07 15:33:00,95.5,37.5,30.09,South,180,1.6,1.6,14,0.00,,,0.00,WUHU21623XXSP,2013-06-07 22:33:00,
2013-06-07 15:38:00,95.5,37.5,30.08,NW,315,0.0,1.6,14,0.00,,,0.00,WUHU21623XXSP,2013-06-07 22:38:00,
2013-06-07 15:44:00,95.5,37.5,30.09,West,270,5.1,5.1,14,0.00,,,0.00,WUHU21623XXSP,2013-06-07 22:44:00,
2013-06-07 15:49:00,95.7,37.6,30.08,NW,315,1.1,5.1,14,0.00,,,0.00,WUHU21623XXSP,2013-06-07 22:49:00,
2013-06-07 15:55:00,96.1,37.9,30.08,WSW,247,0.0,1.1,14,0.00,,,0.00,WUHU21623XXSP,2013-06-07 22:55:00,
2013-06-07 16:00:00,96.1,37.9,30.08,West,270,0.0,0.0,14,0.00,,,0.00,WUHU21623XXSP,2013-06-07 23:00:00,
2013-06-07 16:06:00,96.1,36.1,30.08,SSE,157,0.0,0.0,13,0.00,,,0.00,WUHU21623XXSP,2013-06-07 23:06:00,
2013-06-07 16:11:00,96.1,36.1,30.07,South,180,0.0,0.0,13,0.00,,,0.00,WUHU21623XXSP,2013-06-07 23:11:00,
2013-06-07 16:17:00,96.1,36.1,30.08,WNW,292,6.9,6.9,13,0.00,,,0.00,WUHU21623XXSP,2013-06-07 23:17:00,
2013-06-07 16:22:00,96.1,36.3,30.07,West,270,0.0,6.9,13,0.00,,,0.00,WUHU21623XXSP,2013-06-07 23:22:00,
2013-06-07 16:27:00,96.1,36.1,30.07,WSW,247,4.5,4.5,13,0.00,,,0.00,WUHU21623XXSP,2013-06-07 23:27:00,
2013-06-07 16:32:00,96.1,36.1,30.07,West,270,2.2,4.5,13,0.00,,,0.00,WUHU21623XXSP,2013-06-07 23:32:00,
2013-06-07 16:37:00,95.9,36.0,30.07,West,270,3.1,3.1,13,0.00,,,0.00,WUHU21623XXSP,2013-06-07 23:37:00,
2013-06-07 16:42:00,95.9,36.0,30.07,WNW,292,0.0,3.1,13,0.00,,,0.00,WUHU21623XXSP,2013-06-07 23:42:00,
2013-06-07 16:48:00,95.9,36.0,30.06,West,270,3.8,3.8,13,0.00,,,0.00,WUHU21623XXSP,2013-06-07 23:48:00,
2013-06-07 16:53:00,95.7,35.9,30.06,West,270,0.0,3.8,13,0.00,,,0.00,WUHU21623XXSP,2013-06-07 23:53:00,
2013-06-07 16:58:00,95.7,35.9,30.06,WNW,292,0.0,0.0,13,0.00,,,0.00,WUHU21623XXSP,2013-06-07 23:58:00,
2013-06-07 17:04:00,95.7,35.9,30.06,WNW,292,7.6,7.6,13,0.00,,,0.00,WUHU21623XXSP,2013-06-08 00:04:00,
2013-06-07 17:09:00,95.5,35.7,30.06,WNW,292,0.0,7.6,13,0.00,,,0.00,WUHU21623XXSP,2013-06-08 00:09:00,
2013-06-07 17:17:00,95.4,35.6,30.06,West,270,0.0,0.0,13,0.00,,,0.00,WUHU21623XXSP,2013-06-08 00:17:00,
2013-06-07 17:23:00,95.0,35.3,30.06,ESE,112,0.0,0.0,13,0.00,,,0.00,WUHU21623XXSP,2013-06-08 00:23:00,
2013-06-07 17:28:00,94.8,35.2,30.06,West,270,3.8,3.8,13,0.00,,,0.00,WUHU21623XXSP,2013-06-08 00:28:00,
2013-06-07 17:34:00,94.8,35.2,30.06,West,270,5.1,5.1,13,0.00,,,0.00,WUHU21623XXSP,2013-06-08 00:34:00,
2013-06-07 17:40:00,94.6,35.0,30.06,NW,315,1.3,1.3,13,0.00,,,0.00,WUHU21623XXSP,2013-06-08 00:40:00,
2013-06-07 17:45:00,94.6,35.0,30.06,WSW,247,0.0,1.3,13,0.00,,,0.00,WUHU21623XXSP,2013-06-08 00:45:00,
2013-06-07 17:50:00,94.3,34.7,30.06,West,270,0.0,0.0,13,0.00,,,0.00,WUHU21623XXSP,2013-06-08 00:50:00,
2013-06-07 17:56:00,94.1,34.6,30.06,WNW,292,0.0,0.0,13,0.00,,,0.00,WUHU21623XXSP,2013-06-08 00:56:00,
2013-06-07 18:01:00,93.9,34.4,30.05,SW,225,2.2,2.2,13,0.00,,,0.00,WUHU21623XXSP,2013-06-08 01:01:00,
2013-06-07 18:06:00,93.7,34.3,30.05,NNW,337,0.0,2.2,13,0.00,,,0.00,WUHU21623XXSP,2013-06-08 01:06:00,
2013-06-07 18:12:00,93.7,34.3,30.05,WNW,292,2.9,2.9,13,0.00,,,0.00,WUHU21623XXSP,2013-06-08 01:12:00,
2013-06-07 18:18:00,93.4,34.0,30.06,South,180,0.0,2.9,13,0.00,,,0.00,WUHU21623XXSP,2013-06-08 01:18:00,
2013-06-07 18:23:00,93.2,33.9,30.06,SW,225,1.6,1.6,13,0.00,,,0.00,WUHU21623XXSP,2013-06-08 01:23:00,
2013-06-07 18:28:00,93.0,33.9,30.06,South,180,11.2,11.2,13,0.00,,,0.00,WUHU21623XXSP,2013-06-08 01:28:00,
2013-06-07 18:36:00,92.8,33.6,30.05,South,180,0.7,6.3,13,0.00,,,0.00,WUHU21623XXSP,2013-06-08 01:36:00,
2013-06-07 18:41:00,92.7,33.5,30.05,NW,315,0.0,0.7,13,0.00,,,0.00,WUHU21623XXSP,2013-06-08 01:41:00,
2013-06-07 18:47:00,92.5,33.3,30.05,NW,315,4.7,4.7,13,0.00,,,0.00,WUHU21623XXSP,2013-06-08 01:47:00,
2013-06-07 18:52:00,92.1,35.0,30.05,SE,135,0.0,4.7,14,0.00,,,0.00,WUHU21623XXSP,2013-06-08 01:52:00,
2013-06-07 19:00:00,91.8,32.8,30.05,NNW,337,0.0,0.0,13,0.00,,,0.00,WUHU21623XXSP,2013-06-08 02:00:00,
2013-06-07 19:06:00,91.2,32.4,30.06,North,0,0.0,0.0,13,0.00,,,0.00,WUHU21623XXSP,2013-06-08 02:06:00,
2013-06-07 19:11:00,91.0,34.0,30.05,NNE,22,3.4,3.4,14,0.00,,,0.00,WUHU21623XXSP,2013-06-08 02:11:00,
2013-06-07 19:16:00,91.0,34.0,30.05,WSW,247,0.0,3.4,14,0.00,,,0.00,WUHU21623XXSP,2013-06-08 02:16:00,
2013-06-07 19:25:00,90.3,33.4,30.05,ENE,67,0.0,0.0,14,0.00,,,0.00,WUHU21623XXSP,2013-06-08 02:25:00,
2013-06-07 19:30:00,90.1,33.3,30.06,North,0,0.0,0.0,14,0.00,,,0.00,WUHU21623XXSP,2013-06-08 02:30:00,
2013-06-07 19:36:00,89.8,34.8,30.05,NNW,337,0.0,0.0,15,0.00,,,0.00,WUHU21623XXSP,2013-06-08 02:36:00,
2013-06-07 19:41:00,89.4,34.5,30.05,WNW,292,0.0,0.0,15,0.00,,,0.00,WUHU21623XXSP,2013-06-08 02:41:00,
2013-06-07 19:46:00,89.2,34.3,30.06,West,270,1.3,1.3,15,0.00,,,0.00,WUHU21623XXSP,2013-06-08 02:46:00,
2013-06-07 19:51:00,88.7,33.9,30.06,WSW,247,0.0,1.3,15,0.00,,,0.00,WUHU21623XXSP,2013-06-08 02:51:00,
2013-06-07 19:59:00,88.2,33.5,30.06,WNW,292,3.1,3.1,15,0.00,,,0.00,WUHU21623XXSP,2013-06-08 02:59:00,
2013-06-07 20:05:00,87.8,33.4,30.06,WNW,292,3.1,3.1,15,0.00,,,0.00,WUHU21623XXSP,2013-06-08 03:05:00,
2013-06-07 20:10:00,87.4,33.0,30.06,West,270,3.8,3.8,15,0.00,,,0.00,WUHU21623XXSP,2013-06-08 03:10:00,
2013-06-07 20:15:00,86.5,34.2,30.06,WNW,292,4.5,4.5,16,0.00,,,0.00,WUHU21623XXSP,2013-06-08 03:15:00,
2013-06-07 20:20:00,86.4,33.7,30.06,SW,225,4.0,4.5,16,0.00,,,0.00,WUHU21623XXSP,2013-06-08 03:20:00,
2013-06-07 20:25:00,85.8,33.3,30.06,WNW,292,3.1,4.0,16,0.00,,,0.00,WUHU21623XXSP,2013-06-08 03:25:00,
2013-06-07 20:31:00,85.3,32.9,30.06,SSW,202,2.0,3.1,16,0.00,,,0.00,WUHU21623XXSP,2013-06-08 03:31:00,
2013-06-07 20:40:00,84.6,32.4,30.06,WSW,247,0.0,2.0,16,0.00,,,0.00,WUHU21623XXSP,2013-06-08 03:40:00,
2013-06-07 20:45:00,84.4,32.1,30.06,SSW,202,0.0,0.0,16,0.00,,,0.00,WUHU21623XXSP,2013-06-08 03:45:00,
2013-06-07 20:51:00,83.8,31.7,30.06,West,270,1.3,1.3,16,0.00,,,0.00,WUHU21623XXSP,2013-06-08 03:51:00,
2013-06-07 20:56:00,83.7,31.6,30.06,WNW,292,0.0,1.3,16,0.00,,,0.00,WUHU21623XXSP,2013-06-08 03:56:00,
2013-06-07 21:01:00,83.5,31.4,30.06,NW,315,0.7,1.3,16,0.00,,,0.00,WUHU21623XXSP,2013-06-08 04:01:00,
2013-06-07 21:02:00,83.5,31.4,30.06,NW,315,0.7,0.7,16,0.00,,,0.00,WUHU21623XXSP,2013-06-08 04:02:00,
2013-06-07 21:12:00,82.8,30.9,30.07,West,270,0.0,3.1,17,0.00,,,0.00,WUHU21623XXSP,2013-06-08 04:12:00,
2013-06-07 21:18:00,82.6,32.5,30.08,WNW,292,2.7,2.7,17,0.00,,,0.00,WUHU21623XXSP,2013-06-08 04:18:00,
2013-06-07 21:25:00,82.2,32.2,30.07,WNW,292,3.8,3.8,17,0.00,,,0.00,WUHU21623XXSP,2013-06-08 04:25:00,
2013-06-07 21:30:00,82.0,32.0,30.07,West,270,1.1,3.8,17,0.00,,,0.00,WUHU21623XXSP,2013-06-08 04:30:00,
2013-06-07 21:35:00,82.0,32.0,30.08,West,270,0.0,1.1,17,0.00,,,0.00,WUHU21623XXSP,2013-06-08 04:35:00,
2013-06-07 21:40:00,81.7,31.7,30.08,NNW,337,0.0,0.0,17,0.00,,,0.00,WUHU21623XXSP,2013-06-08 04:40:00,
2013-06-07 21:45:00,81.7,31.7,30.08,SE,135,0.0,0.0,17,0.00,,,0.00,WUHU21623XXSP,2013-06-08 04:45:00,
2013-06-07 21:50:00,81.0,32.9,30.09,SE,135,0.0,0.0,18,0.00,,,0.00,WUHU21623XXSP,2013-06-08 04:50:00,
2013-06-07 21:55:00,80.2,34.1,30.08,NNE,22,0.0,0.0,19,0.00,,,0.00,WUHU21623XXSP,2013-06-08 04:55:00,
2013-06-07 22:01:00,79.7,31.8,30.08,NW,315,0.0,0.0,18,0.00,,,0.00,WUHU21623XXSP,2013-06-08 05:01:00,
2013-06-07 22:06:00,79.2,31.6,30.09,NW,315,0.0,0.0,18,0.00,,,0.00,WUHU21623XXSP,2013-06-08 05:06:00,
2013-06-07 22:11:00,79.0,31.1,30.09,North,0,0.0,0.0,18,0.00,,,0.00,WUHU21623XXSP,2013-06-08 05:11:00,
2013-06-07 22:16:00,78.6,30.8,30.08,NNW,337,0.0,0.0,18,0.00,,,0.00,WUHU21623XXSP,2013-06-08 05:16:00,
2013-06-07 22:21:00,78.4,30.7,30.09,North,0,0.0,0.0,18,0.00,,,0.00,WUHU21623XXSP,2013-06-08 05:21:00,
2013-06-07 22:26:00,78.4,30.7,30.09,WNW,292,0.0,0.0,18,0.00,,,0.00,WUHU21623XXSP,2013-06-08 05:26:00,
2013-06-07 22:32:00,78.4,30.7,30.09,WNW,292,0.0,0.0,18,0.00,,,0.00,WUHU21623XXSP,2013-06-08 05:32:00,
2013-06-07 22:37:00,78.1,30.4,30.09,WSW,247,0.0,0.0,18,0.00,,,0.00,WUHU21623XXSP,2013-06-08 05:37:00,
2013-06-07 22:42:00,77.9,33.6,30.09,WNW,292,0.0,0.0,20,0.00,,,0.00,WUHU21623XXSP,2013-06-08 05:42:00,
2013-06-07 22:48:00,77.5,35.4,30.09,North,0,0.0,0.0,22,0.00,,,0.00,WUHU21623XXSP,2013-06-08 05:48:00,
2013-06-07 22:53:00,76.8,36.0,30.09,North,0,0.0,0.0,24,0.00,,,0.00,WUHU21623XXSP,2013-06-08 05:53:00,
2013-06-07 22:59:00,76.1,36.3,30.09,ESE,112,0.0,0.0,24,0.00,,,0.00,WUHU21623XXSP,2013-06-08 05:59:00,
2013-06-07 23:04:00,75.6,36.0,30.09,ESE,112,0.0,0.0,24,0.00,,,0.00,WUHU21623XXSP,2013-06-08 06:04:00,
2013-06-07 23:09:00,75.0,35.4,30.09,ESE,112,0.0,0.0,24,0.00,,,0.00,WUHU21623XXSP,2013-06-08 06:09:00,
2013-06-07 23:14:00,73.9,34.5,30.09,ENE,67,0.0,0.0,24,0.00,,,0.00,WUHU21623XXSP,2013-06-08 06:14:00,
2013-06-07 23:19:00,73.6,34.2,30.09,SSE,157,0.0,0.0,24,0.00,,,0.00,WUHU21623XXSP,2013-06-08 06:19:00,
2013-06-07 23:24:00,73.2,33.9,30.09,WNW,292,0.0,0.0,24,0.00,,,0.00,WUHU21623XXSP,2013-06-08 06:24:00,
2013-06-07 23:29:00,72.7,33.4,30.09,SE,135,0.0,0.0,24,0.00,,,0.00,WUHU21623XXSP,2013-06-08 06:29:00,
2013-06-07 23:34:00,72.1,33.0,30.09,South,180,0.0,0.0,24,0.00,,,0.00,WUHU21623XXSP,2013-06-08 06:34:00,
2013-06-07 23:39:00,71.2,32.2,30.10,NNW,337,0.0,0.0,24,0.00,,,0.00,WUHU21623XXSP,2013-06-08 06:39:00,
2013-06-07 23:44:00,70.9,31.9,30.10,West,270,0.0,0.0,25,0.00,,,0.00,WUHU21623XXSP,2013-06-08 06:44:00,
2013-06-07 23:50:00,70.2,33.3,30.10,NW,315,2.0,2.0,26,0.00,,,0.00,WUHU21623XXSP,2013-06-08 06:50:00,
2013-06-07 23:55:00,69.6,32.8,30.10,WNW,292,0.0,2.0,26,0.00,,,0.00,WUHU21623XXSP,2013-06-08 06:55:00,